EUTE 117 WEST A(SATMEX 8

导读 | 豆包AI

EUTELSAT 117 WEST A原名为SATMEX 8,由欧洲卫星运营商EUTELSAT拥有,于2013年3月26日发射升空。该卫星定点西经117度地球静止轨道,服务覆盖美洲区域,主要为美洲地区提供数据传输、政府服务、视频广播及宽带接入等多元化通信业务,是欧洲卫星公司美洲卫星网络布局中的重要节点,支撑区域内多场景通信需求。

Basic Information
目录编号:
39122
目录名称:
EUTE 117 WEST A(SATMEX 8
国际标识:
2013-012A
轨道中心:
EARTH
卫星名称:
EUTE 117 WEST A(SATMEX 8
卫星全名:
--
卫星状态:
在轨 (已飞行4783 天)
发射日期:
2013-03-26 UTC
国别 :
(EUTE)
星等 :
--
Orbit Information
数据来源 国际轨道数据 AOE轨道数据
星历时间 2026-04-30T13:39:14+0800
9小时前
查看轨道信息
2026-04-29T18:00:00+0800
1天前
查看轨道信息
半长轴 42164.756km 42164.784km
偏心率 0.0002638 0.00026
轨道倾角 0.019° 0.017°
近地点辐角 58.676° 62.824°
升交点赤经 333.563° 326.515°
平近点角 153.949° 221.233°
近地点 35775.495km 35775.684km
远地点 35797.743km 35797.61km
周期 1436.098分钟 1436.100分钟
每日圈数 1.002717 1.002716
Detailed Information
使用方式:
暂无
2D Orbit Map
3D Orbit Map
Orbit Altitude Analysis Chart
Orbit Inclination Analysis Chart
Orbit Comprehensive Analysis Chart
View Comprehensive Chart